Vertical_Velocity
1 -0 2 3 -1 -2 -3 -22 -5 22 -3 12 8 2 -7 13 -0 -7 -5 -4 -0 1 -2 1 -0 -1 0 0 -0 0 -2 -0 -1 1 -0 -0 0 -1 -2 7 6 3 2 -0 2 1 -1 0 2
2 3 2 9 -0 6 -12 -2 -15 4 -6 1 -13 -2 -4 8 9 5 -2 -5 -1 0 -1 -1 -0 -1 -0 -0 -1 -1 0 1 -2 0 -2 1 -0 -1 -2 8 8 7 4 6 2 3 0 0 1
3 -0 9 3 -5 -8 -10 -9 -11 20 -19 -2 -1 1 -5 5 0 4 2 -4 -1 1 0 -2 -0 -1 -1 -2 -1 -2 -2 2 1 -4 -1 0 -2 -2 3 -1 -1 -1 -0 -8 -5 3 3 2 5
3 7 0 -1 -3 -21 -16 16 18 12 -6 -3 1 6 -6 -2 -9 0 2 -2 0 2 3 0 -1 1 -2 -0 -0 1 -3 0 -1 -5 -1 -1 0 -0 -4 -3 -1 -12 -2 3 1 -5 -3 -1 3
1 5 4 2 -9 -16 -4 2 -6 10 0 -1 2 0 -2 -6 -1 -2 1 0 -5 -0 5 -0 1 0 -2 1 0 -2 -0 -1 1 3 -2 -1 0 -2 -1 -2 -2 1 6 2 -4 1 3 -9 -0
4 3 0 -7 -10 -27 -1 21 4 -7 2 -3 -3 5 -5 4 1 2 0 -3 -0 -1 2 -0 -1 -1 -2 1 1 -1 -0 -5 2 -1 3 -1 -1 -0 -2 -2 -2 5 6 6 -0 1 6 -3 1
-4 3 -13 -0 -8 -10 -3 7 -0 -7 3 -8 4 1 -3 -3 2 2 4 -11 4 -3 2 2 -1 -1 -2 -3 -1 -1 -1 0 -4 -2 -2 -4 -4 -3 -1 -1 -1 0 -2 -3 -1 1 0 -0 -1
1 17 7 1 -7 -5 -6 -9 3 -8 -10 4 4 -5 -11 -1 1 1 -2 -0 4 -0 2 1 -1 -0 -1 -1 -2 -1 1 3 0 3 5 10 4 0 1 -0 -2 -1 2 1 0 2 -3 3 0
12 12 -2 -12 -17 -44 13 16 20 7 -3 17 -4 0 -10 2 -3 -1 -3 1 0 1 4 2 1 -3 -2 2 1 -1 -0 -2 -0 -1 7 3 -2 -1 -2 -1 -1 -2 -2 -3 -1 -0 -1 1 1
-1 -4 -20 4 14 -7 10 10 23 -4 -4 -5 5 -4 -6 3 -2 2 -4 1 -0 -2 -2 4 -4 -2 5 1 0 -0 -3 -2 -3 0 3 0 -0 -0 -1 -1 -0 -2 -1 -2 -0 -1 -0 3 -3
1 -12 -14 -11 -9 2 2 14 9 -1 -0 -5 -11 -5 -0 1 -1 1 2 3 5 0 -0 -13 -1 4 2 2 -1 -4 0 -1 -1 0 2 -1 -2 -0 -0 -1 -2 -0 -1 -0 -3 -3 1 0 2
-5 3 0 4 -0 1 4 42 1 6 -15 1 17 -8 12 1 0 -2 0 0 0 -0 -1 0 0 3 1 5 2 4 7 5 2 -1 0 0 -1 -1 -1 -1 -2 0 -0 0 -1 1 1 1 0
4 1 -1 -6 -7 -2 6 6 8 1 -5 10 9 -10 2 -1 6 -0 2 1 6 -2 -0 -2 1 -2 -2 0 3 3 2 -1 0 0 -0 0 -0 -0 -2 -0 -1 -3 -0 -0 -2 -2 -1 -0 1
-6 -1 1 3 -7 8 6 5 0 -2 -4 5 5 -4 7 1 2 5 -5 -0 5 -0 4 3 1 -0 2 2 1 2 3 2 1 1 4 3 1 2 4 -0 1 -3 3 1 -0 -0 0 -0 0
1 10 1 -10 -2 -5 13 -1 -1 -1 -1 18 -3 1 2 1 0 1 5 3 4 4 3 5 2 4 2 -1 3 4 -1 -2 -2 0 -2 3 1 -1 2 2 2 -1 7 -0 1 -1 1 -0 1
5 18 14 3 -7 -3 8 -7 -0 -12 3 22 -6 3 1 1 3 3 -1 2 6 6 -1 8 6 0 3 0 4 5 4 5 1 -3 -1 1 -1 -4 -0 -1 -0 -3 2 0 1 1 1 0 -0
4 -16 10 18 -5 11 -5 2 1 -6 -5 -4 6 -3 -2 5 3 -1 1 7 4 7 1 2 5 2 3 5 1 2 3 3 -2 1 1 1 -0 -2 -3 -3 0 -0 -3 -1 -0 -0 0 1 0
6 6 4 2 -4 12 -2 3 -4 -12 -12 -3 8 1 -1 -6 8 1 -5 4 3 5 -0 4 30 5 -2 9 -1 1 4 4 -1 1 -4 0 0 1 -1 -1 -0 0 -0 -1 -3 -1 -0 -0 4
19 10 -2 6 -1 2 6 3 -14 -2 11 5 1 12 6 -9 0 2 -0 5 -0 1 2 4 -8 3 8 11 8 3 0 1 -0 1 1 1 1 0 1 -1 0 0 -1 -0 -1 -0 -2 2 -4
11 0 -3 7 -7 -2 6 -7 3 -10 -0 -3 5 -2 -1 10 2 7 -12 2 3 4 3 0 -2 23 -1 2 7 4 1 3 7 11 6 -2 5 2 -3 0 -2 4 1 1 0 -1 -0 -0 1
-6 -8 0 -10 6 37 14 14 2 0 1 3 2 14 15 19 -6 -6 -6 -4 5 4 2 2 5 4 -0 10 10 -5 15 -2 11 -5 -3 4 4 1 1 -1 -3 0 -0 1 0 -0 -0 3 -1
13 -13 10 4 12 -6 -3 -2 -9 -5 11 7 2 -2 1 7 5 -4 -2 3 5 -0 1 2 3 -3 -2 -0 8 2 -7 1 0 -4 -1 0 3 -3 -3 -4 -2 -4 0 0 -0 1 0 -1 -2
7 8 -2 -0 9 0 6 13 -17 6 3 2 1 0 5 4 0 -7 2 -2 5 2 2 2 1 1 5 6 34 -7 2 -1 -1 2 0 1 -5 0 -1 -2 -1 -3 -4 1 -0 -1 -1 0 -1
-9 13 13 13 14 12 -14 -8 -10 -1 8 0 1 -2 4 -1 0 -6 2 4 0 4 3 4 2 -1 21 -0 3 -1 -10 2 6 6 0 -2 4 3 -5 -0 1 0 -3 -2 -1 0 -2 -0 0
16 -1 2 12 13 -2 -4 19 -1 2 8 9 -2 -3 0 0 1 3 4 4 2 3 5 4 5 5 4 -5 4 1 -3 -1 6 -2 -2 3 -3 2 -2 4 1 -5 -2 -0 -2 -1 -2 -3 -2
-10 7 -2 -0 0 3 17 3 -2 10 6 3 1 1 3 1 -0 0 3 1 2 2 4 4 5 3 3 6 12 6 6 -1 1 1 -3 1 0 -1 -3 -4 -4 -2 -4 -3 -2 -3 -4 -2 -2
7 5 4 -4 2 -1 1 4 6 -2 4 2 1 2 2 -1 1 1 2 1 2 2 2 3 3 3 5 4 2 -3 11 -2 -4 -0 -5 7 1 -1 -1 1 -0 -3 1 -0 -2 0 -2 -4 -2
3 26 5 -0 0 -0 2 1 -0 1 -1 -1 3 2 -0 1 3 2 2 2 2 2 2 1 3 7 6 3 0 2 10 5 -8 9 1 8 5 1 -7 3 7 -2 -2 0 -2 -1 -1 -3 -2
-12 -7 -1 9 -2 -2 -1 5 2 1 2 1 2 2 -1 0 0 2 1 2 1 1 1 4 0 -6 -5 3 -1 7 -1 18 -8 -0 -2 2 0 -0 4 -2 -2 2 -3 -2 -2 -1 -1 -1 -1
7 6 7 2 7 -1 2 3 -2 0 -1 -3 4 3 -1 0 2 2 0 1 0 -1 -0 -0 -1 2 1 3 -3 -3 14 -4 1 5 7 2 4 1 0 3 0 -1 -1 -3 -2 -1 -1 -2 -1
Height
3103 3106 3108 3110 3115 3109 3104 3104 3110 3113 3113 3115 3117 3120 3123 3126 3127 3131 3131 3133 3136 3139 3142 3144 3145 3147 3149 3151 3152 3154 3156 3158 3160 3162 3164 3165 3167 3168 3170 3171 3172 3173 3175 3177 3179 3181 3183 3185 3187
3098 3101 3104 3105 3104 3102 3099 3104 3106 3109 3109 3112 3113 3117 3120 3123 3123 3125 3127 3130 3134 3137 3140 3142 3144 3146 3148 3150 3152 3154 3156 3157 3161 3163 3165 3166 3168 3169 3171 3173 3173 3171 3174 3176 3179 3182 3184 3186 3189
3094 3097 3100 3098 3095 3094 3097 3101 3102 3107 3106 3110 3111 3114 3118 3118 3119 3123 3126 3128 3131 3135 3138 3141 3143 3145 3147 3149 3152 3154 3156 3158 3161 3164 3165 3167 3168 3170 3172 3174 3175 3175 3175 3175 3178 3183 3185 3187 3190
3088 3091 3092 3088 3086 3090 3094 3098 3103 3102 3103 3107 3108 3111 3113 3113 3116 3122 3124 3126 3129 3133 3136 3139 3142 3145 3146 3149 3151 3153 3156 3159 3161 3164 3166 3168 3169 3171 3173 3174 3175 3176 3176 3177 3181 3185 3187 3188 3191
3082 3084 3082 3079 3079 3087 3093 3096 3098 3100 3100 3104 3105 3107 3109 3112 3115 3120 3123 3125 3128 3132 3135 3138 3141 3144 3146 3148 3151 3153 3156 3159 3162 3164 3166 3168 3170 3172 3174 3176 3177 3177 3178 3181 3183 3185 3188 3190 3192
3072 3075 3073 3070 3075 3082 3086 3092 3094 3097 3099 3100 3103 3105 3106 3109 3112 3117 3120 3122 3128 3130 3133 3136 3139 3142 3145 3148 3151 3153 3156 3159 3162 3164 3165 3169 3171 3173 3175 3177 3178 3180 3181 3183 3184 3187 3189 3192 3194
3064 3065 3059 3065 3069 3075 3079 3087 3087 3092 3095 3096 3100 3101 3101 3105 3108 3112 3116 3118 3124 3128 3131 3134 3138 3140 3143 3146 3149 3152 3154 3158 3161 3164 3166 3169 3172 3174 3176 3178 3179 3181 3183 3184 3186 3188 3189 3191 3193
3059 3061 3057 3058 3065 3069 3076 3081 3082 3085 3092 3096 3096 3095 3095 3101 3105 3109 3110 3115 3121 3125 3129 3132 3135 3138 3142 3145 3148 3152 3155 3158 3162 3165 3168 3170 3172 3175 3177 3179 3181 3182 3184 3185 3186 3188 3190 3191 3194
3056 3051 3045 3052 3058 3059 3071 3075 3077 3080 3087 3091 3091 3090 3092 3098 3101 3106 3108 3112 3116 3120 3125 3129 3132 3136 3140 3143 3146 3150 3154 3157 3160 3164 3167 3170 3172 3175 3177 3179 3181 3182 3184 3186 3188 3189 3191 3193 3195
3038 3033 3035 3047 3054 3057 3065 3070 3071 3073 3077 3083 3083 3086 3090 3092 3097 3102 3106 3109 3113 3116 3121 3125 3129 3135 3138 3141 3145 3148 3151 3155 3159 3162 3166 3169 3172 3175 3177 3180 3181 3183 3185 3187 3188 3189 3190 3193 3196
3027 3017 3033 3040 3049 3055 3059 3065 3064 3066 3068 3075 3076 3081 3084 3088 3093 3097 3101 3106 3111 3113 3117 3120 3127 3132 3135 3138 3142 3145 3149 3153 3158 3162 3165 3168 3171 3174 3177 3179 3182 3184 3186 3188 3189 3190 3192 3193 3197
3019 3021 3028 3036 3044 3049 3053 3061 3058 3060 3061 3070 3073 3075 3079 3084 3088 3093 3096 3101 3105 3108 3112 3118 3123 3127 3132 3135 3139 3144 3148 3152 3156 3159 3163 3166 3170 3173 3176 3178 3181 3184 3186 3188 3190 3192 3193 3195 3197
3007 3017 3025 3030 3034 3039 3046 3048 3052 3053 3059 3064 3066 3067 3072 3076 3081 3087 3091 3097 3101 3103 3108 3114 3119 3124 3128 3133 3137 3141 3145 3149 3153 3157 3160 3164 3167 3170 3173 3176 3179 3182 3185 3188 3190 3192 3194 3196 3197
3005 3011 3018 3023 3027 3032 3035 3039 3042 3047 3055 3056 3059 3062 3066 3071 3075 3079 3081 3091 3096 3099 3104 3110 3115 3121 3125 3130 3134 3138 3142 3146 3150 3154 3157 3160 3164 3168 3171 3174 3177 3180 3184 3186 3188 3191 3193 3195 3197
3001 3006 3010 3009 3018 3021 3030 3027 3028 3042 3048 3051 3054 3058 3062 3065 3068 3074 3081 3086 3092 3096 3101 3106 3111 3117 3122 3127 3132 3136 3139 3143 3146 3150 3154 3157 3160 3162 3166 3170 3174 3176 3181 3183 3186 3188 3190 3193 3195
2992 3000 2991 2995 3009 3015 3022 3012 3024 3033 3040 3045 3048 3052 3057 3060 3066 3070 3073 3079 3085 3091 3096 3102 3107 3112 3118 3122 3128 3133 3137 3141 3144 3147 3151 3154 3157 3159 3163 3165 3169 3172 3176 3179 3183 3185 3188 3190 3192
2977 2964 2975 2988 2993 3006 3008 3009 3018 3026 3032 3038 3042 3046 3050 3055 3059 3063 3068 3074 3079 3085 3090 3095 3101 3106 3113 3118 3122 3128 3132 3136 3141 3144 3148 3150 3153 3156 3159 3161 3165 3168 3172 3176 3179 3181 3184 3187 3189
2954 2963 2973 2978 2982 2992 2998 2999 3011 3019 3023 3029 3036 3038 3044 3047 3053 3057 3061 3068 3072 3078 3083 3090 3096 3102 3108 3114 3117 3123 3127 3132 3135 3139 3143 3146 3149 3152 3155 3157 3161 3164 3167 3171 3174 3177 3180 3183 3186
2957 2959 2963 2973 2978 2984 2985 2996 3002 3011 3014 3021 3027 3033 3037 3040 3047 3051 3051 3063 3068 3072 3077 3083 3090 3097 3102 3108 3112 3117 3122 3126 3129 3133 3138 3142 3146 3148 3152 3154 3156 3160 3163 3166 3169 3172 3174 3178 3181
2952 2956 2958 2968 2973 2978 2983 2986 2995 3002 3007 3013 3020 3025 3033 3037 3040 3038 3044 3057 3063 3068 3072 3077 3084 3090 3097 3103 3107 3113 3118 3122 3127 3130 3134 3138 3141 3145 3148 3150 3153 3157 3159 3161 3163 3166 3169 3172 3176
2942 2949 2954 2960 2968 2971 2980 2982 2986 2992 3001 3007 3013 3019 3025 3030 3026 3031 3040 3050 3056 3062 3067 3072 3079 3085 3091 3098 3101 3107 3110 3116 3121 3125 3129 3134 3138 3140 3144 3147 3148 3153 3155 3157 3158 3160 3164 3167 3169
2932 2938 2951 2955 2960 2963 2968 2971 2977 2985 2992 2998 3003 3010 3016 3019 3021 3028 3032 3041 3048 3055 3061 3067 3072 3077 3086 3091 3097 3101 3107 3111 3116 3120 3124 3127 3131 3136 3139 3142 3144 3147 3150 3153 3154 3156 3157 3160 3163
2921 2933 2940 2949 2952 2961 2962 2968 2966 2978 2984 2986 2991 3001 3009 3011 3012 3020 3027 3034 3040 3047 3054 3060 3065 3072 3079 3084 3089 3096 3100 3105 3111 3114 3119 3122 3127 3130 3134 3136 3139 3141 3144 3148 3150 3151 3151 3154 3157
2920 2925 2933 2941 2946 2946 2952 2959 2961 2967 2972 2978 2985 2992 3000 3006 3007 3014 3022 3029 3033 3039 3046 3053 3060 3066 3073 3079 3084 3089 3095 3100 3103 3108 3112 3117 3120 3124 3128 3130 3133 3135 3137 3139 3143 3145 3146 3147 3150
2918 2922 2928 2930 2934 2934 2944 2955 2954 2957 2963 2970 2977 2985 2993 2999 3003 3010 3016 3021 3027 3032 3039 3045 3052 3059 3066 3072 3078 3084 3090 3092 3097 3103 3107 3111 3113 3117 3121 3124 3127 3130 3132 3134 3135 3137 3140 3141 3143
2921 2926 2925 2926 2926 2932 2936 2940 2947 2952 2958 2965 2972 2979 2986 2992 2998 3004 3010 3015 3020 3025 3031 3039 3046 3052 3059 3066 3072 3077 3081 3086 3092 3096 3101 3105 3108 3111 3114 3117 3121 3124 3126 3128 3128 3130 3132 3134 3135
2922 2922 2925 2929 2931 2933 2936 2940 2944 2949 2955 2963 2969 2974 2980 2986 2992 2998 3004 3010 3015 3020 3026 3033 3040 3046 3052 3058 3064 3070 3074 3080 3085 3089 3094 3097 3101 3105 3109 3112 3114 3117 3119 3121 3122 3124 3125 3126 3128
2918 2921 2927 2931 2931 2933 2936 2941 2944 2948 2954 2959 2964 2969 2974 2979 2985 2991 2997 3003 3009 3015 3021 3027 3032 3039 3045 3051 3057 3062 3067 3071 3078 3080 3085 3090 3094 3098 3101 3104 3107 3110 3113 3113 3115 3117 3119 3120 3121
2923 2922 2921 2923 2926 2929 2937 2946 2944 2946 2950 2956 2961 2964 2968 2973 2979 2985 2992 2998 3003 3009 3015 3020 3026 3032 3038 3044 3050 3053 3058 3062 3069 3074 3078 3083 3086 3090 3094 3098 3101 3104 3106 3107 3109 3111 3112 3113 3115
2928 2927 2924 2923 2929 2932 2931 2945 2944 2946 2950 2955 2959 2960 2965 2970 2974 2980 2986 2991 2997 3003 3009 3014 3019 3026 3033 3039 3044 3050 3052 3058 3062 3068 3071 3075 3079 3084 3088 3091 3094 3097 3099 3101 3102 3103 3105 3106 3108